Zurück zum Katalog

STARLINK-31465

AktivKommunikationVLEO
NORAD 59012·PAYLOAD·🇺🇸 United States

Gestartet Feb 23, 2024 von Vandenberg Space Force Base

Loading…

Nächste Überflüge (nächste 24 Stunden)

TLE

AktuellSource: CelesTrak SupGP

Epoche: Sep 15, 2026, 03:08 UTC

1 59012C 24036Q   26258.13104167 -.00005317  00000+0 -17092-3 0  2585
2 59012  53.1564 277.9581 0001239  85.2521 173.9729 15.31715200    14

Verfolge STARLINK-31465 in Echtzeit mit AllMySat

Download on the App Store